Time,TemperatureF,DewpointF,PressureIn,WindDirection,WindDirectionDegrees,WindSpeedMPH,WindSpeedGustMPH,Humidity,HourlyPrecipIn,Conditions,Clouds,dailyrainin,SoftwareType,DateUTC
2013-02-25 00:02:00,58.5,38.9,29.06,North,0,0.0,0.0,48,0.00,,BKN,0.00,VWS V14.01,2013-02-25 06:02:00,
2013-02-25 00:07:00,58.3,38.7,29.06,North,0,0.0,0.0,48,0.00,,BKN,0.00,VWS V14.01,2013-02-25 06:07:00,
2013-02-25 00:12:00,58.1,38.5,29.06,North,0,0.0,0.0,48,0.00,,BKN,0.00,VWS V14.01,2013-02-25 06:12:00,
2013-02-25 00:17:00,57.7,38.7,29.03,North,0,0.0,0.0,49,0.00,,BKN,0.00,VWS V14.01,2013-02-25 06:17:00,
2013-02-25 00:22:00,57.6,39.1,29.03,North,0,0.0,0.0,50,0.00,,BKN,0.00,VWS V14.01,2013-02-25 06:22:00,
2013-02-25 00:27:00,57.6,39.1,29.03,North,0,0.0,0.0,50,0.00,,BKN,0.00,VWS V14.01,2013-02-25 06:27:00,
2013-02-25 00:33:00,57.4,38.9,29.03,North,0,0.0,0.0,50,0.00,,BKN,0.00,VWS V14.01,2013-02-25 06:33:00,
2013-02-25 00:38:00,57.4,38.9,29.03,North,0,0.0,0.0,50,0.00,,BKN,0.00,VWS V14.01,2013-02-25 06:38:00,
2013-02-25 00:43:00,57.4,38.9,29.03,North,0,0.0,0.0,50,0.00,,BKN,0.00,VWS V14.01,2013-02-25 06:43:00,
2013-02-25 00:48:00,57.6,39.1,29.06,North,0,0.0,0.0,50,0.00,,BKN,0.00,VWS V14.01,2013-02-25 06:48:00,
2013-02-25 00:53:00,57.6,39.1,29.06,North,0,0.0,0.0,50,0.00,,BKN,0.00,VWS V14.01,2013-02-25 06:53:00,
2013-02-25 00:58:00,57.6,39.1,29.06,North,0,0.0,0.0,50,0.00,,BKN,0.00,VWS V14.01,2013-02-25 06:58:00,
2013-02-25 01:03:00,57.6,39.1,29.03,North,0,0.0,0.0,50,0.00,,BKN,0.00,VWS V14.01,2013-02-25 07:03:00,
2013-02-25 01:08:00,57.7,39.8,29.03,North,0,0.0,0.0,51,0.00,,BKN,0.00,VWS V14.01,2013-02-25 07:08:00,
2013-02-25 01:13:00,57.6,39.6,29.03,North,0,0.0,0.0,51,0.00,,BKN,0.00,VWS V14.01,2013-02-25 07:13:00,
2013-02-25 01:19:00,57.6,39.6,29.03,North,0,0.0,0.0,51,0.00,,BKN,0.00,VWS V14.01,2013-02-25 07:19:00,
2013-02-25 01:24:00,57.6,39.6,29.03,North,0,0.0,0.0,51,0.00,,BKN,0.00,VWS V14.01,2013-02-25 07:24:00,
2013-02-25 01:29:00,57.6,39.6,29.03,North,0,0.0,0.0,51,0.00,,BKN,0.00,VWS V14.01,2013-02-25 07:29:00,
2013-02-25 01:34:00,57.6,39.6,29.03,North,0,0.0,0.0,51,0.00,,BKN,0.00,VWS V14.01,2013-02-25 07:34:00,
2013-02-25 01:39:00,57.6,39.6,29.03,North,0,0.0,0.0,51,0.00,,BKN,0.00,VWS V14.01,2013-02-25 07:39:00,
2013-02-25 01:44:00,57.6,39.6,29.03,North,0,0.0,0.0,51,0.00,,BKN,0.00,VWS V14.01,2013-02-25 07:44:00,
2013-02-25 01:49:00,57.7,39.8,29.03,North,0,0.0,0.0,51,0.00,,BKN,0.00,VWS V14.01,2013-02-25 07:49:00,
2013-02-25 01:54:00,57.7,39.8,29.03,North,0,0.0,0.0,51,0.00,,BKN,0.00,VWS V14.01,2013-02-25 07:54:00,
2013-02-25 01:59:00,57.7,39.8,29.03,North,0,0.0,0.0,51,0.00,,BKN,0.00,VWS V14.01,2013-02-25 07:59:00,
2013-02-25 02:04:00,57.9,39.9,29.03,North,0,0.0,0.0,51,0.00,,BKN,0.00,VWS V14.01,2013-02-25 08:04:00,
2013-02-25 02:10:00,57.9,39.9,29.03,North,0,0.0,0.0,51,0.00,,BKN,0.00,VWS V14.01,2013-02-25 08:10:00,
2013-02-25 02:15:00,57.9,39.9,29.03,North,0,0.0,0.0,51,0.00,,BKN,0.00,VWS V14.01,2013-02-25 08:15:00,
2013-02-25 02:20:00,57.9,39.9,29.03,North,0,0.0,0.0,51,0.00,,BKN,0.00,VWS V14.01,2013-02-25 08:20:00,
2013-02-25 02:25:00,58.1,40.1,29.03,North,0,0.0,0.0,51,0.00,,BKN,0.00,VWS V14.01,2013-02-25 08:25:00,
2013-02-25 02:30:00,58.1,40.1,29.06,North,0,0.0,0.0,51,0.00,,BKN,0.00,VWS V14.01,2013-02-25 08:30:00,
2013-02-25 02:35:00,58.1,40.1,29.06,North,0,0.0,0.0,51,0.00,,BKN,0.00,VWS V14.01,2013-02-25 08:35:00,
2013-02-25 02:40:00,58.1,40.1,29.06,North,0,0.0,0.0,51,0.00,,BKN,0.00,VWS V14.01,2013-02-25 08:40:00,
2013-02-25 02:45:00,58.1,40.1,29.06,North,0,0.0,0.0,51,0.00,,BKN,0.00,VWS V14.01,2013-02-25 08:45:00,
2013-02-25 02:50:00,58.1,39.6,29.06,North,0,0.0,0.0,50,0.00,,BKN,0.00,VWS V14.01,2013-02-25 08:50:00,
2013-02-25 02:55:00,58.3,39.7,29.06,North,0,0.0,0.0,50,0.00,,BKN,0.00,VWS V14.01,2013-02-25 08:55:00,
2013-02-25 03:01:00,58.1,40.1,29.06,North,0,0.0,0.0,51,0.00,,BKN,0.00,VWS V14.01,2013-02-25 09:01:00,
2013-02-25 03:06:00,58.3,40.2,29.06,North,0,0.0,0.0,51,0.00,,BKN,0.00,VWS V14.01,2013-02-25 09:06:00,
2013-02-25 03:11:00,58.1,40.1,29.06,North,0,0.0,0.0,51,0.00,,BKN,0.00,VWS V14.01,2013-02-25 09:11:00,
2013-02-25 03:16:00,58.1,40.1,29.06,North,0,0.0,0.0,51,0.00,,BKN,0.00,VWS V14.01,2013-02-25 09:16:00,
2013-02-25 03:21:00,57.9,41.9,29.06,North,0,0.0,0.0,55,0.00,,BKN,0.00,VWS V14.01,2013-02-25 09:21:00,
2013-02-25 03:26:00,57.7,42.2,29.06,North,0,0.0,0.0,56,0.00,,BKN,0.00,VWS V14.01,2013-02-25 09:26:00,
2013-02-25 03:31:00,57.7,43.1,29.09,North,0,0.0,0.0,58,0.00,,BKN,0.00,VWS V14.01,2013-02-25 09:31:00,
2013-02-25 03:36:00,57.4,43.2,29.09,North,0,0.0,0.0,59,0.00,,BKN,0.00,VWS V14.01,2013-02-25 09:36:00,
2013-02-25 03:42:00,57.2,43.5,29.09,North,0,0.0,0.0,60,0.00,,BKN,0.00,VWS V14.01,2013-02-25 09:42:00,
2013-02-25 03:47:00,56.8,44.4,29.06,North,0,0.0,0.0,63,0.00,,BKN,0.00,VWS V14.01,2013-02-25 09:47:00,
2013-02-25 03:52:00,56.7,45.0,29.06,North,0,0.0,0.0,65,0.00,,BKN,0.00,VWS V14.01,2013-02-25 09:52:00,
2013-02-25 03:57:00,56.5,45.7,29.06,North,0,0.0,0.0,67,0.00,,BKN,0.00,VWS V14.01,2013-02-25 09:57:00,
2013-02-25 04:02:00,56.5,45.7,29.06,North,0,0.0,0.0,67,0.00,,BKN,0.00,VWS V14.01,2013-02-25 10:02:00,
2013-02-25 04:07:00,56.3,45.9,29.06,North,0,0.0,0.0,68,0.00,,BKN,0.00,VWS V14.01,2013-02-25 10:07:00,
2013-02-25 04:12:00,56.3,46.7,29.06,North,0,0.0,0.0,70,0.00,,BKN,0.00,VWS V14.01,2013-02-25 10:12:00,
2013-02-25 04:17:00,55.9,46.3,29.06,North,0,0.0,0.0,70,0.00,,BKN,0.00,VWS V14.01,2013-02-25 10:17:00,
2013-02-25 04:22:00,55.9,46.7,29.06,North,0,0.0,0.0,71,0.00,,BKN,0.00,VWS V14.01,2013-02-25 10:22:00,
2013-02-25 04:27:00,55.9,46.7,29.06,North,0,0.0,0.0,71,0.00,,BKN,0.00,VWS V14.01,2013-02-25 10:27:00,
2013-02-25 04:33:00,55.9,47.1,29.03,North,0,0.0,0.0,72,0.00,,BKN,0.00,VWS V14.01,2013-02-25 10:33:00,
2013-02-25 04:38:00,55.4,47.3,29.03,North,0,0.0,0.0,74,0.00,,BKN,0.00,VWS V14.01,2013-02-25 10:38:00,
2013-02-25 04:43:00,55.2,47.5,29.03,North,0,0.0,0.0,75,0.00,,BKN,0.00,VWS V14.01,2013-02-25 10:43:00,
2013-02-25 04:48:00,55.0,47.3,29.03,North,0,0.0,0.0,75,0.00,,BKN,0.00,VWS V14.01,2013-02-25 10:48:00,
2013-02-25 04:53:00,55.0,47.3,29.03,North,0,0.0,0.0,75,0.00,,BKN,0.00,VWS V14.01,2013-02-25 10:53:00,
2013-02-25 04:58:00,55.0,47.3,29.03,North,0,0.0,0.0,75,0.00,,BKN,0.00,VWS V14.01,2013-02-25 10:58:00,
2013-02-25 05:03:00,55.2,47.5,29.00,North,0,0.0,0.0,75,0.00,,BKN,0.00,VWS V14.01,2013-02-25 11:03:00,
2013-02-25 05:09:00,55.0,46.9,29.00,North,0,0.0,0.0,74,0.00,,BKN,0.00,VWS V14.01,2013-02-25 11:09:00,
2013-02-25 05:14:00,55.0,46.9,29.00,North,0,0.0,0.0,74,0.00,,BKN,0.00,VWS V14.01,2013-02-25 11:14:00,
2013-02-25 05:19:00,54.9,46.4,29.03,North,0,0.0,0.0,73,0.00,,BKN,0.00,VWS V14.01,2013-02-25 11:19:00,
2013-02-25 05:24:00,54.7,45.8,29.03,North,0,0.0,0.0,72,0.00,,BKN,0.00,VWS V14.01,2013-02-25 11:24:00,
2013-02-25 05:29:00,54.7,45.1,29.03,North,0,0.0,0.0,70,0.00,,BKN,0.00,VWS V14.01,2013-02-25 11:29:00,
2013-02-25 05:34:00,54.5,44.5,29.00,North,0,0.0,0.0,69,0.00,,BKN,0.00,VWS V14.01,2013-02-25 11:34:00,
2013-02-25 05:39:00,54.5,43.8,29.00,North,0,0.0,0.0,67,0.00,,BKN,0.00,VWS V14.01,2013-02-25 11:39:00,
2013-02-25 05:44:00,54.5,43.8,29.00,North,0,0.0,0.0,67,0.00,,BKN,0.00,VWS V14.01,2013-02-25 11:44:00,
2013-02-25 05:49:00,54.5,43.8,29.00,North,0,0.0,0.0,67,0.00,,BKN,0.00,VWS V14.01,2013-02-25 11:49:00,
2013-02-25 05:55:00,54.5,43.4,29.00,North,0,0.0,0.0,66,0.00,,BKN,0.00,VWS V14.01,2013-02-25 11:55:00,
2013-02-25 06:00:00,54.5,43.0,29.00,North,0,0.0,0.0,65,0.00,,BKN,0.00,VWS V14.01,2013-02-25 12:00:00,
2013-02-25 06:05:00,54.5,43.0,29.00,North,0,0.0,0.0,65,0.00,,BKN,0.00,VWS V14.01,2013-02-25 12:05:00,
2013-02-25 06:10:00,54.5,43.0,29.00,North,0,0.0,0.0,65,0.00,,BKN,0.00,VWS V14.01,2013-02-25 12:10:00,
2013-02-25 06:15:00,54.5,42.6,28.97,North,0,0.0,0.0,64,0.00,,BKN,0.00,VWS V14.01,2013-02-25 12:15:00,
2013-02-25 06:20:00,54.5,42.6,28.97,North,0,0.0,0.0,64,0.00,,BKN,0.00,VWS V14.01,2013-02-25 12:20:00,
2013-02-25 06:25:00,54.3,42.4,28.97,North,0,0.0,0.0,64,0.00,,BKN,0.00,VWS V14.01,2013-02-25 12:25:00,
2013-02-25 06:30:00,54.5,42.6,29.00,North,0,0.0,0.0,64,0.00,,BKN,0.00,VWS V14.01,2013-02-25 12:30:00,
2013-02-25 06:35:00,54.5,43.0,29.00,North,0,0.0,0.0,65,0.00,,BKN,0.00,VWS V14.01,2013-02-25 12:35:00,
2013-02-25 06:41:00,54.5,43.0,29.00,North,0,0.0,0.0,65,0.00,,BKN,0.00,VWS V14.01,2013-02-25 12:41:00,
2013-02-25 06:46:00,54.5,43.0,29.00,North,0,0.0,0.0,65,0.00,,BKN,0.00,VWS V14.01,2013-02-25 12:46:00,
2013-02-25 06:51:00,54.5,43.0,29.00,North,0,0.0,0.0,65,0.00,,BKN,0.00,VWS V14.01,2013-02-25 12:51:00,
2013-02-25 06:57:00,54.5,42.6,29.00,North,0,0.0,0.0,64,0.00,,BKN,0.00,VWS V14.01,2013-02-25 12:57:00,
2013-02-25 07:02:00,54.5,43.0,29.00,North,0,0.0,0.0,65,0.00,,BKN,0.00,VWS V14.01,2013-02-25 13:02:00,
2013-02-25 07:07:00,54.5,43.0,29.00,North,0,0.0,0.0,65,0.00,,BKN,0.00,VWS V14.01,2013-02-25 13:07:00,
2013-02-25 07:12:00,54.5,43.4,29.00,North,0,0.0,0.0,66,0.00,,BKN,0.00,VWS V14.01,2013-02-25 13:12:00,
2013-02-25 07:18:00,54.3,43.2,29.00,North,0,0.0,0.0,66,0.00,,BKN,0.00,VWS V14.01,2013-02-25 13:18:00,
2013-02-25 07:23:00,54.5,43.4,29.00,North,0,0.0,0.0,66,0.00,,BKN,0.00,VWS V14.01,2013-02-25 13:23:00,
2013-02-25 07:28:00,54.3,43.6,29.00,North,0,0.0,0.0,67,0.00,,BKN,0.00,VWS V14.01,2013-02-25 13:28:00,
2013-02-25 07:33:00,54.3,43.6,29.00,North,0,0.0,0.0,67,0.00,,BKN,0.00,VWS V14.01,2013-02-25 13:33:00,
2013-02-25 07:38:00,54.3,43.6,29.00,North,0,0.0,0.0,67,0.00,,BKN,0.00,VWS V14.01,2013-02-25 13:38:00,
2013-02-25 07:43:00,54.3,44.0,29.00,North,0,0.0,0.0,68,0.00,,BKN,0.00,VWS V14.01,2013-02-25 13:43:00,
2013-02-25 07:49:00,54.3,44.0,29.00,North,0,0.0,0.0,68,0.00,,BKN,0.00,VWS V14.01,2013-02-25 13:49:00,
2013-02-25 07:54:00,54.3,44.4,29.00,North,0,0.0,0.0,69,0.00,,BKN,0.00,VWS V14.01,2013-02-25 13:54:00,
2013-02-25 07:59:00,54.1,44.2,29.00,North,0,0.0,0.0,69,0.00,,BKN,0.00,VWS V14.01,2013-02-25 13:59:00,
2013-02-25 08:04:00,54.3,44.8,29.00,North,0,0.0,0.0,70,0.00,,BKN,0.00,VWS V14.01,2013-02-25 14:04:00,
2013-02-25 08:09:00,54.5,44.9,29.00,North,0,0.0,0.0,70,0.00,,BKN,0.00,VWS V14.01,2013-02-25 14:09:00,
2013-02-25 08:15:00,54.9,45.3,29.00,North,0,0.0,0.0,70,0.00,,BKN,0.00,VWS V14.01,2013-02-25 14:15:00,
2013-02-25 08:20:00,55.2,45.6,29.00,North,0,0.0,0.0,70,0.00,,BKN,0.00,VWS V14.01,2013-02-25 14:20:00,
2013-02-25 08:25:00,55.6,45.6,29.00,North,0,0.0,0.0,69,0.00,,BKN,0.00,VWS V14.01,2013-02-25 14:25:00,
2013-02-25 08:30:00,55.8,45.8,29.00,North,0,0.0,0.0,69,0.00,,BKN,0.00,VWS V14.01,2013-02-25 14:30:00,
2013-02-25 08:35:00,55.8,46.1,29.00,North,0,0.0,0.0,70,0.00,,BKN,0.00,VWS V14.01,2013-02-25 14:35:00,
2013-02-25 08:40:00,55.8,46.1,29.00,North,0,0.0,0.0,70,0.00,,BKN,0.00,VWS V14.01,2013-02-25 14:40:00,
2013-02-25 08:45:00,55.8,46.1,29.00,North,0,0.0,0.0,70,0.00,,BKN,0.00,VWS V14.01,2013-02-25 14:45:00,
2013-02-25 08:50:00,55.9,46.3,29.00,North,0,0.0,0.0,70,0.00,,BKN,0.00,VWS V14.01,2013-02-25 14:50:00,
2013-02-25 08:55:00,55.9,46.7,29.00,North,0,0.0,0.0,71,0.00,,BKN,0.00,VWS V14.01,2013-02-25 14:55:00,
2013-02-25 09:01:00,56.1,46.9,29.00,North,0,0.0,0.0,71,0.00,,BKN,0.00,VWS V14.01,2013-02-25 15:01:00,
2013-02-25 09:06:00,56.5,47.2,29.00,North,0,0.0,0.0,71,0.00,,BKN,0.00,VWS V14.01,2013-02-25 15:06:00,
2013-02-25 09:11:00,56.8,47.5,29.00,North,0,0.0,0.0,71,0.00,,BKN,0.00,VWS V14.01,2013-02-25 15:11:00,
2013-02-25 09:16:00,57.0,47.7,29.00,North,0,0.0,0.0,71,0.00,,BKN,0.00,VWS V14.01,2013-02-25 15:16:00,
2013-02-25 09:21:00,58.3,48.2,29.00,North,0,0.0,0.0,69,0.00,,BKN,0.00,VWS V14.01,2013-02-25 15:21:00,
2013-02-25 09:26:00,58.3,47.4,29.00,North,0,0.0,0.0,67,0.00,,BKN,0.00,VWS V14.01,2013-02-25 15:26:00,
2013-02-25 09:31:00,58.1,47.6,29.00,North,0,0.0,0.0,68,0.00,,BKN,0.00,VWS V14.01,2013-02-25 15:31:00,
2013-02-25 09:36:00,58.5,48.7,29.00,North,0,0.0,0.0,70,0.00,,BKN,0.00,VWS V14.01,2013-02-25 15:36:00,
2013-02-25 09:42:00,58.6,49.3,29.00,North,0,0.0,0.0,71,0.00,,BKN,0.00,VWS V14.01,2013-02-25 15:42:00,
2013-02-25 09:47:00,58.5,49.5,29.00,North,0,0.0,0.0,72,0.00,,BKN,0.00,VWS V14.01,2013-02-25 15:47:00,
2013-02-25 09:52:00,57.9,47.8,29.00,North,0,0.0,0.0,69,0.00,,BKN,0.00,VWS V14.01,2013-02-25 15:52:00,
2013-02-25 09:57:00,57.2,46.4,29.00,North,0,0.0,0.0,67,0.00,,BKN,0.00,VWS V14.01,2013-02-25 15:57:00,
2013-02-25 10:02:00,56.8,46.4,29.00,North,0,0.0,0.0,68,0.00,,BKN,0.00,VWS V14.01,2013-02-25 16:02:00,
2013-02-25 10:07:00,56.1,43.7,29.00,North,0,0.0,0.0,63,0.00,,BKN,0.00,VWS V14.01,2013-02-25 16:07:00,
2013-02-25 10:13:00,56.1,42.0,29.00,North,0,0.0,0.0,59,0.00,,BKN,0.00,VWS V14.01,2013-02-25 16:13:00,
2013-02-25 10:18:00,56.1,40.7,29.00,North,0,0.0,0.0,56,0.00,,BKN,0.00,VWS V14.01,2013-02-25 16:18:00,
2013-02-25 10:23:00,56.7,39.7,29.00,North,0,0.0,0.0,53,0.00,,BKN,0.00,VWS V14.01,2013-02-25 16:23:00,
2013-02-25 10:28:00,57.6,40.6,29.00,North,0,0.0,0.0,53,0.00,,BKN,0.00,VWS V14.01,2013-02-25 16:28:00,
2013-02-25 10:33:00,57.2,38.2,29.00,North,0,0.0,0.0,49,0.00,,BKN,0.00,VWS V14.01,2013-02-25 16:33:00,
2013-02-25 10:39:00,57.0,38.6,29.00,North,0,0.0,0.0,50,0.00,,BKN,0.00,VWS V14.01,2013-02-25 16:39:00,
2013-02-25 10:44:00,56.3,37.4,29.00,North,0,0.0,0.0,49,0.00,,BKN,0.00,VWS V14.01,2013-02-25 16:44:00,
2013-02-25 10:49:00,56.3,37.4,29.00,North,0,0.0,0.0,49,0.00,,BKN,0.00,VWS V14.01,2013-02-25 16:49:00,
2013-02-25 10:54:00,56.5,37.0,29.00,North,0,0.0,0.0,48,0.00,,BKN,0.00,VWS V14.01,2013-02-25 16:54:00,
2013-02-25 10:59:00,55.8,36.4,29.00,North,0,0.0,0.0,48,0.00,,BKN,0.00,VWS V14.01,2013-02-25 16:59:00,
2013-02-25 11:04:00,56.1,36.2,29.00,North,0,0.0,0.0,47,0.00,,BKN,0.00,VWS V14.01,2013-02-25 17:04:00,
2013-02-25 11:09:00,56.1,36.2,29.00,North,0,0.0,0.0,47,0.00,,BKN,0.00,VWS V14.01,2013-02-25 17:09:00,
2013-02-25 11:14:00,56.1,36.7,29.00,North,0,0.0,0.0,48,0.00,,BKN,0.00,VWS V14.01,2013-02-25 17:14:00,
2013-02-25 11:20:00,56.3,35.2,29.00,North,0,0.0,0.0,45,0.00,,BKN,0.00,VWS V14.01,2013-02-25 17:20:00,
2013-02-25 11:25:00,56.3,35.2,29.00,North,0,0.0,0.0,45,0.00,,BKN,0.00,VWS V14.01,2013-02-25 17:25:00,
2013-02-25 11:30:00,56.5,34.8,29.00,North,0,0.0,0.0,44,0.00,,BKN,0.00,VWS V14.01,2013-02-25 17:30:00,
2013-02-25 11:35:00,56.5,34.3,29.00,North,0,0.0,0.0,43,0.00,,BKN,0.00,VWS V14.01,2013-02-25 17:35:00,
2013-02-25 11:40:00,56.8,35.7,29.00,North,0,0.0,0.0,45,0.00,,BKN,0.00,VWS V14.01,2013-02-25 17:40:00,
2013-02-25 11:45:00,57.2,34.9,29.00,North,0,0.0,0.0,43,0.00,,BKN,0.00,VWS V14.01,2013-02-25 17:45:00,
2013-02-25 11:50:00,57.7,35.4,29.00,North,0,0.0,0.0,43,0.00,,BKN,0.00,VWS V14.01,2013-02-25 17:50:00,
2013-02-25 11:56:00,58.3,34.7,29.00,North,0,0.0,0.0,41,0.00,,BKN,0.00,VWS V14.01,2013-02-25 17:56:00,
2013-02-25 12:01:00,58.5,34.9,29.00,North,0,0.0,0.0,41,0.00,,BKN,0.00,VWS V14.01,2013-02-25 18:01:00,
2013-02-25 12:06:00,59.0,34.1,29.00,North,0,0.0,0.0,39,0.00,,BKN,0.00,VWS V14.01,2013-02-25 18:06:00,
2013-02-25 12:11:00,59.2,33.0,29.00,North,0,0.0,0.0,37,0.00,,BKN,0.00,VWS V14.01,2013-02-25 18:11:00,
2013-02-25 12:16:00,59.2,33.0,28.97,North,0,0.0,0.0,37,0.00,,BKN,0.00,VWS V14.01,2013-02-25 18:16:00,
2013-02-25 12:22:00,59.7,33.4,28.97,North,0,0.0,0.0,37,0.00,,BKN,0.00,VWS V14.01,2013-02-25 18:22:00,
2013-02-25 12:27:00,60.3,32.5,28.97,North,0,0.0,0.0,35,0.00,,BKN,0.00,VWS V14.01,2013-02-25 18:27:00,
2013-02-25 12:32:00,60.4,32.7,28.97,North,0,0.0,0.0,35,0.00,,BKN,0.00,VWS V14.01,2013-02-25 18:32:00,
2013-02-25 12:37:00,60.6,32.1,28.97,North,0,0.0,0.0,34,0.00,,BKN,0.00,VWS V14.01,2013-02-25 18:37:00,
2013-02-25 12:42:00,60.4,32.0,28.97,North,0,0.0,0.0,34,0.00,,BKN,0.00,VWS V14.01,2013-02-25 18:42:00,
2013-02-25 12:48:00,60.3,31.1,28.97,North,0,0.0,0.0,33,0.00,,BKN,0.00,VWS V14.01,2013-02-25 18:48:00,
2013-02-25 12:53:00,60.4,31.2,28.97,North,0,0.0,0.0,33,0.00,,BKN,0.00,VWS V14.01,2013-02-25 18:53:00,
2013-02-25 12:58:00,60.6,31.4,28.97,North,0,0.0,0.0,33,0.00,,BKN,0.00,VWS V14.01,2013-02-25 18:58:00,
2013-02-25 13:03:00,60.6,30.6,28.94,North,0,0.0,0.0,32,0.00,,BKN,0.00,VWS V14.01,2013-02-25 19:03:00,
2013-02-25 13:08:00,60.8,30.8,28.94,North,0,0.0,0.0,32,0.00,,BKN,0.00,VWS V14.01,2013-02-25 19:08:00,
2013-02-25 13:14:00,60.3,31.1,28.94,North,0,0.0,0.0,33,0.00,,BKN,0.00,VWS V14.01,2013-02-25 19:14:00,
2013-02-25 13:19:00,60.4,31.2,28.94,North,0,0.0,0.0,33,0.00,,BKN,0.00,VWS V14.01,2013-02-25 19:19:00,
2013-02-25 13:24:00,60.4,32.0,28.94,North,0,0.0,0.0,34,0.00,,BKN,0.00,VWS V14.01,2013-02-25 19:24:00,
2013-02-25 13:29:00,61.3,31.2,28.94,North,0,0.0,0.0,32,0.00,,BKN,0.00,VWS V14.01,2013-02-25 19:29:00,
2013-02-25 13:34:00,61.7,30.0,28.94,North,0,0.0,0.0,30,0.00,,BKN,0.00,VWS V14.01,2013-02-25 19:34:00,
2013-02-25 13:39:00,61.9,29.3,28.94,North,0,0.0,0.0,29,0.00,,BKN,0.00,VWS V14.01,2013-02-25 19:39:00,
2013-02-25 13:44:00,61.9,28.4,28.94,North,0,0.0,0.0,28,0.00,,BKN,0.00,VWS V14.01,2013-02-25 19:44:00,
2013-02-25 13:49:00,61.5,29.0,28.94,North,0,0.0,0.0,29,0.00,,BKN,0.00,VWS V14.01,2013-02-25 19:49:00,
2013-02-25 13:55:00,60.4,28.1,28.94,North,0,0.0,0.0,29,0.00,,BKN,0.00,VWS V14.01,2013-02-25 19:55:00,
2013-02-25 14:00:00,60.1,28.6,28.91,North,0,0.0,0.0,30,0.00,,BKN,0.00,VWS V14.01,2013-02-25 20:00:00,
2013-02-25 14:05:00,60.1,28.6,28.91,North,0,0.0,0.0,30,0.00,,BKN,0.00,VWS V14.01,2013-02-25 20:05:00,
2013-02-25 14:10:00,60.6,29.0,28.91,North,0,0.0,0.0,30,0.00,,BKN,0.00,VWS V14.01,2013-02-25 20:10:00,
2013-02-25 14:15:00,61.0,28.5,28.94,North,0,0.0,0.0,29,0.00,,BKN,0.00,VWS V14.01,2013-02-25 20:15:00,
2013-02-25 14:20:00,60.8,27.5,28.94,North,0,0.0,0.0,28,0.00,,BKN,0.00,VWS V14.01,2013-02-25 20:20:00,
2013-02-25 14:26:00,60.4,28.9,28.94,North,0,0.0,0.0,30,0.00,,BKN,0.00,VWS V14.01,2013-02-25 20:26:00,
2013-02-25 14:31:00,59.4,28.7,28.94,North,0,0.0,0.0,31,0.00,,BKN,0.00,VWS V14.01,2013-02-25 20:31:00,
2013-02-25 14:36:00,59.4,29.5,28.94,North,0,0.0,0.0,32,0.00,,BKN,0.00,VWS V14.01,2013-02-25 20:36:00,
2013-02-25 14:41:00,59.4,27.9,28.94,North,0,0.0,0.0,30,0.00,,BKN,0.00,VWS V14.01,2013-02-25 20:41:00,
2013-02-25 14:46:00,59.2,28.6,28.94,North,0,0.0,0.0,31,0.00,,BKN,0.00,VWS V14.01,2013-02-25 20:46:00,
2013-02-25 14:51:00,58.1,27.6,28.94,North,0,0.0,0.0,31,0.00,,BKN,0.00,VWS V14.01,2013-02-25 20:51:00,
2013-02-25 14:57:00,57.2,27.6,28.94,North,0,0.0,0.0,32,0.00,,BKN,0.00,VWS V14.01,2013-02-25 20:57:00,
2013-02-25 15:02:00,57.4,26.2,28.94,North,0,0.0,0.0,30,0.00,,BKN,0.00,VWS V14.01,2013-02-25 21:02:00,
2013-02-25 15:07:00,57.6,25.6,28.94,North,0,0.0,0.0,29,0.00,,BKN,0.00,VWS V14.01,2013-02-25 21:07:00,
2013-02-25 15:12:00,57.2,25.2,28.94,North,0,0.0,0.0,29,0.00,,BKN,0.00,VWS V14.01,2013-02-25 21:12:00,
2013-02-25 15:17:00,57.0,25.1,28.94,North,0,0.0,0.0,29,0.00,,BKN,0.00,VWS V14.01,2013-02-25 21:17:00,
2013-02-25 15:23:00,56.7,24.8,28.94,North,0,0.0,0.0,29,0.00,,BKN,0.00,VWS V14.01,2013-02-25 21:23:00,
2013-02-25 15:28:00,56.7,24.8,28.94,North,0,0.0,0.0,29,0.00,,BKN,0.00,VWS V14.01,2013-02-25 21:28:00,
2013-02-25 15:33:00,56.5,24.6,28.94,North,0,0.0,0.0,29,0.00,,BKN,0.00,VWS V14.01,2013-02-25 21:33:00,
2013-02-25 15:38:00,56.5,24.6,28.94,North,0,0.0,0.0,29,0.00,,BKN,0.00,VWS V14.01,2013-02-25 21:38:00,
2013-02-25 15:43:00,56.1,24.3,28.94,North,0,0.0,0.0,29,0.00,,BKN,0.00,VWS V14.01,2013-02-25 21:43:00,
2013-02-25 15:48:00,55.2,24.4,28.94,North,0,0.0,0.0,30,0.00,,BKN,0.00,VWS V14.01,2013-02-25 21:48:00,
2013-02-25 15:54:00,55.0,24.2,28.94,North,0,0.0,0.0,30,0.00,,BKN,0.00,VWS V14.01,2013-02-25 21:54:00,
2013-02-25 15:59:00,54.5,23.7,28.94,North,0,0.0,0.0,30,0.00,,BKN,0.00,VWS V14.01,2013-02-25 21:59:00,
2013-02-25 16:04:00,53.6,23.7,28.94,North,0,0.0,0.0,31,0.00,,BKN,0.00,VWS V14.01,2013-02-25 22:04:00,
2013-02-25 16:09:00,53.2,24.2,28.94,North,0,0.0,0.0,32,0.00,,BKN,0.00,VWS V14.01,2013-02-25 22:09:00,
2013-02-25 16:14:00,52.9,24.6,28.94,North,0,0.0,0.0,33,0.00,,BKN,0.00,VWS V14.01,2013-02-25 22:14:00,
2013-02-25 16:19:00,52.5,24.3,28.94,North,0,0.0,0.0,33,0.00,,BKN,0.00,VWS V14.01,2013-02-25 22:19:00,
2013-02-25 16:25:00,52.5,25.7,28.94,North,0,0.0,0.0,35,0.00,,BKN,0.00,VWS V14.01,2013-02-25 22:25:00,
2013-02-25 16:30:00,52.3,25.5,28.94,North,0,0.0,0.0,35,0.00,,BKN,0.00,VWS V14.01,2013-02-25 22:30:00,
2013-02-25 16:35:00,52.0,25.9,28.94,North,0,0.0,0.0,36,0.00,,BKN,0.00,VWS V14.01,2013-02-25 22:35:00,
2013-02-25 16:40:00,52.0,25.9,28.94,North,0,0.0,0.0,36,0.00,,BKN,0.00,VWS V14.01,2013-02-25 22:40:00,
2013-02-25 16:45:00,51.8,25.7,28.94,North,0,0.0,0.0,36,0.00,,BKN,0.00,VWS V14.01,2013-02-25 22:45:00,
2013-02-25 16:50:00,51.3,25.9,28.94,North,0,0.0,0.0,37,0.00,,BKN,0.00,VWS V14.01,2013-02-25 22:50:00,
2013-02-25 16:55:00,51.1,26.4,28.94,North,0,0.0,0.0,38,0.00,,BKN,0.00,VWS V14.01,2013-02-25 22:55:00,
2013-02-25 17:01:00,51.1,26.4,28.97,North,0,0.0,0.0,38,0.00,,BKN,0.00,VWS V14.01,2013-02-25 23:01:00,
2013-02-25 17:06:00,50.4,26.4,28.97,North,0,0.0,0.0,39,0.00,,BKN,0.00,VWS V14.01,2013-02-25 23:06:00,
2013-02-25 17:11:00,50.0,26.6,28.97,North,0,0.0,0.0,40,0.00,,BKN,0.00,VWS V14.01,2013-02-25 23:11:00,
2013-02-25 17:16:00,49.6,27.5,28.97,North,0,0.0,0.0,42,0.00,,BKN,0.00,VWS V14.01,2013-02-25 23:16:00,
2013-02-25 17:21:00,49.5,28.5,28.97,North,0,0.0,0.0,44,0.00,,BKN,0.00,VWS V14.01,2013-02-25 23:21:00,
2013-02-25 17:27:00,48.9,29.1,28.97,North,0,0.0,0.0,46,0.00,,BKN,0.00,VWS V14.01,2013-02-25 23:27:00,
2013-02-25 17:32:00,48.7,29.9,28.97,North,0,0.0,0.0,48,0.00,,BKN,0.00,VWS V14.01,2013-02-25 23:32:00,
2013-02-25 17:37:00,48.6,29.8,28.97,North,0,0.0,0.0,48,0.00,,BKN,0.00,VWS V14.01,2013-02-25 23:37:00,
2013-02-25 17:42:00,48.4,30.6,28.97,North,0,0.0,0.0,50,0.00,,BKN,0.00,VWS V14.01,2013-02-25 23:42:00,
2013-02-25 17:47:00,48.2,31.4,28.97,North,0,0.0,0.0,52,0.00,,BKN,0.00,VWS V14.01,2013-02-25 23:47:00,
2013-02-25 17:52:00,47.8,31.5,28.97,North,0,0.0,0.0,53,0.00,,BKN,0.00,VWS V14.01,2013-02-25 23:52:00,
2013-02-25 17:58:00,47.5,32.1,28.97,North,0,0.0,0.0,55,0.00,,BKN,0.00,VWS V14.01,2013-02-25 23:58:00,
2013-02-25 18:03:00,47.3,32.8,28.97,North,0,0.0,0.0,57,0.00,,BKN,0.00,VWS V14.01,2013-02-26 00:03:00,
2013-02-25 18:08:00,47.1,33.5,28.97,North,0,0.0,0.0,59,0.00,,BKN,0.00,VWS V14.01,2013-02-26 00:08:00,
2013-02-25 18:13:00,47.1,34.4,28.97,North,0,0.0,0.0,61,0.00,,BKN,0.00,VWS V14.01,2013-02-26 00:13:00,
2013-02-25 18:18:00,47.1,34.4,28.97,North,0,0.0,0.0,61,0.00,,BKN,0.00,VWS V14.01,2013-02-26 00:18:00,
2013-02-25 18:23:00,46.8,33.2,28.97,North,0,0.0,0.0,59,0.00,,BKN,0.00,VWS V14.01,2013-02-26 00:23:00,
2013-02-25 18:28:00,45.9,32.8,28.97,North,0,0.0,0.0,60,0.00,,BKN,0.00,VWS V14.01,2013-02-26 00:28:00,
2013-02-25 18:34:00,45.1,32.5,28.97,North,0,0.0,0.0,61,0.00,,BKN,0.00,VWS V14.01,2013-02-26 00:34:00,
2013-02-25 18:39:00,44.8,32.6,28.97,North,0,0.0,0.0,62,0.00,,BKN,0.00,VWS V14.01,2013-02-26 00:39:00,
2013-02-25 18:44:00,44.6,32.0,28.97,North,0,0.0,0.0,61,0.00,,BKN,0.00,VWS V14.01,2013-02-26 00:44:00,
2013-02-25 18:49:00,44.2,31.7,29.00,North,0,0.0,0.0,61,0.00,,BKN,0.00,VWS V14.01,2013-02-26 00:49:00,
2013-02-25 18:54:00,44.1,31.1,29.00,North,0,0.0,0.0,60,0.00,,BKN,0.00,VWS V14.01,2013-02-26 00:54:00,
2013-02-25 18:59:00,43.5,30.6,29.00,North,0,0.0,0.0,60,0.00,,BKN,0.00,VWS V14.01,2013-02-26 00:59:00,
2013-02-25 19:04:00,43.5,30.6,29.00,North,0,0.0,0.0,60,0.00,,BKN,0.00,VWS V14.01,2013-02-26 01:04:00,
2013-02-25 19:09:00,43.3,30.0,29.00,North,0,0.0,0.0,59,0.00,,BKN,0.00,VWS V14.01,2013-02-26 01:09:00,
2013-02-25 19:14:00,43.0,29.6,29.00,North,0,0.0,0.0,59,0.00,,BKN,0.00,VWS V14.01,2013-02-26 01:14:00,
2013-02-25 19:20:00,43.0,29.6,29.03,North,0,0.0,0.0,59,0.00,,BKN,0.00,VWS V14.01,2013-02-26 01:20:00,
2013-02-25 19:25:00,42.8,29.1,29.03,North,0,0.0,0.0,58,0.00,,BKN,0.00,VWS V14.01,2013-02-26 01:25:00,
2013-02-25 19:30:00,42.4,29.1,29.03,North,0,0.0,0.0,59,0.00,,BKN,0.00,VWS V14.01,2013-02-26 01:30:00,
2013-02-25 19:35:00,42.4,29.1,29.03,North,0,0.0,0.0,59,0.00,,BKN,0.00,VWS V14.01,2013-02-26 01:35:00,
2013-02-25 19:40:00,42.4,29.1,29.03,North,0,0.0,0.0,59,0.00,,BKN,0.00,VWS V14.01,2013-02-26 01:40:00,
2013-02-25 19:45:00,42.4,29.5,29.03,North,0,0.0,0.0,60,0.00,,BKN,0.00,VWS V14.01,2013-02-26 01:45:00,
2013-02-25 19:50:00,42.1,29.6,29.03,North,0,0.0,0.0,61,0.00,,BKN,0.00,VWS V14.01,2013-02-26 01:50:00,
2013-02-25 19:55:00,42.3,29.4,29.03,North,0,0.0,0.0,60,0.00,,BKN,0.00,VWS V14.01,2013-02-26 01:55:00,
2013-02-25 20:00:00,42.4,29.5,29.03,North,0,0.0,0.0,60,0.00,,BKN,0.00,VWS V14.01,2013-02-26 02:00:00,
2013-02-25 20:06:00,42.4,29.1,29.03,North,0,0.0,0.0,59,0.00,,BKN,0.00,VWS V14.01,2013-02-26 02:06:00,
2013-02-25 20:11:00,42.6,29.3,29.03,North,0,0.0,0.0,59,0.00,,BKN,0.00,VWS V14.01,2013-02-26 02:11:00,
2013-02-25 20:16:00,42.8,29.1,29.03,North,0,0.0,0.0,58,0.00,,BKN,0.00,VWS V14.01,2013-02-26 02:16:00,
2013-02-25 20:21:00,42.8,29.1,29.03,North,0,0.0,0.0,58,0.00,,BKN,0.00,VWS V14.01,2013-02-26 02:21:00,
2013-02-25 20:26:00,42.6,28.9,29.03,North,0,0.0,0.0,58,0.00,,BKN,0.00,VWS V14.01,2013-02-26 02:26:00,
2013-02-25 20:31:00,42.4,28.7,29.06,North,0,0.0,0.0,58,0.00,,BKN,0.00,VWS V14.01,2013-02-26 02:31:00,
2013-02-25 20:36:00,42.6,28.9,29.06,North,0,0.0,0.0,58,0.00,,BKN,0.00,VWS V14.01,2013-02-26 02:36:00,
2013-02-25 20:42:00,42.6,28.9,29.06,North,0,0.0,0.0,58,0.00,,BKN,0.00,VWS V14.01,2013-02-26 02:42:00,
2013-02-25 20:47:00,42.4,28.7,29.06,North,0,0.0,0.0,58,0.00,,BKN,0.00,VWS V14.01,2013-02-26 02:47:00,
2013-02-25 20:52:00,42.4,28.7,29.06,North,0,0.0,0.0,58,0.00,,BKN,0.00,VWS V14.01,2013-02-26 02:52:00,
2013-02-25 20:57:00,42.4,28.7,29.06,North,0,0.0,0.0,58,0.00,,BKN,0.00,VWS V14.01,2013-02-26 02:57:00,
2013-02-25 21:02:00,42.4,28.7,29.06,North,0,0.0,0.0,58,0.00,,BKN,0.00,VWS V14.01,2013-02-26 03:02:00,
2013-02-25 21:07:00,42.8,28.6,29.06,North,0,0.0,0.0,57,0.00,,BKN,0.00,VWS V14.01,2013-02-26 03:07:00,
2013-02-25 21:12:00,42.8,28.6,29.06,North,0,0.0,0.0,57,0.00,,BKN,0.00,VWS V14.01,2013-02-26 03:12:00,
2013-02-25 21:18:00,42.8,28.6,29.06,North,0,0.0,0.0,57,0.00,,BKN,0.00,VWS V14.01,2013-02-26 03:18:00,
2013-02-25 21:23:00,42.8,28.6,29.06,North,0,0.0,0.0,57,0.00,,BKN,0.00,VWS V14.01,2013-02-26 03:23:00,
2013-02-25 21:28:00,42.8,29.1,29.06,North,0,0.0,0.0,58,0.00,,BKN,0.00,VWS V14.01,2013-02-26 03:28:00,
2013-02-25 21:33:00,42.8,29.1,29.06,North,0,0.0,0.0,58,0.00,,BKN,0.00,VWS V14.01,2013-02-26 03:33:00,
2013-02-25 21:38:00,42.8,29.1,29.06,North,0,0.0,0.0,58,0.00,,BKN,0.00,VWS V14.01,2013-02-26 03:38:00,
2013-02-25 21:43:00,42.8,29.1,29.06,North,0,0.0,0.0,58,0.00,,BKN,0.00,VWS V14.01,2013-02-26 03:43:00,
2013-02-25 21:48:00,43.0,29.2,29.09,North,0,0.0,0.0,58,0.00,,BKN,0.00,VWS V14.01,2013-02-26 03:48:00,
2013-02-25 21:53:00,42.8,29.5,29.09,North,0,0.0,0.0,59,0.00,,BKN,0.00,VWS V14.01,2013-02-26 03:53:00,
2013-02-25 21:59:00,42.6,30.1,29.09,North,0,0.0,0.0,61,0.00,,BKN,0.00,VWS V14.01,2013-02-26 03:59:00,
2013-02-25 22:04:00,42.4,30.0,29.09,North,0,0.0,0.0,61,0.00,,BKN,0.00,VWS V14.01,2013-02-26 04:04:00,
2013-02-25 22:09:00,42.4,30.4,29.09,North,0,0.0,0.0,62,0.00,,BKN,0.00,VWS V14.01,2013-02-26 04:09:00,
2013-02-25 22:14:00,42.4,30.0,29.09,North,0,0.0,0.0,61,0.00,,BKN,0.00,VWS V14.01,2013-02-26 04:14:00,
2013-02-25 22:19:00,42.4,30.0,29.09,North,0,0.0,0.0,61,0.00,,BKN,0.00,VWS V14.01,2013-02-26 04:19:00,
2013-02-25 22:24:00,42.4,30.0,29.09,North,0,0.0,0.0,61,0.00,,BKN,0.00,VWS V14.01,2013-02-26 04:24:00,
2013-02-25 22:29:00,42.4,30.0,29.09,North,0,0.0,0.0,61,0.00,,BKN,0.00,VWS V14.01,2013-02-26 04:29:00,
2013-02-25 22:34:00,42.6,30.1,29.12,North,0,0.0,0.0,61,0.00,,BKN,0.00,VWS V14.01,2013-02-26 04:34:00,
2013-02-25 22:40:00,42.6,29.7,29.12,North,0,0.0,0.0,60,0.00,,BKN,0.00,VWS V14.01,2013-02-26 04:40:00,
2013-02-25 22:45:00,42.6,29.7,29.12,North,0,0.0,0.0,60,0.00,,BKN,0.00,VWS V14.01,2013-02-26 04:45:00,
2013-02-25 22:50:00,42.6,29.3,29.12,North,0,0.0,0.0,59,0.00,,BKN,0.00,VWS V14.01,2013-02-26 04:50:00,
2013-02-25 22:55:00,42.6,29.3,29.12,North,0,0.0,0.0,59,0.00,,BKN,0.00,VWS V14.01,2013-02-26 04:55:00,
2013-02-25 23:00:00,42.6,29.7,29.12,North,0,0.0,0.0,60,0.00,,BKN,0.00,VWS V14.01,2013-02-26 05:00:00,
2013-02-25 23:01:00,42.6,29.3,29.12,North,0,0.0,0.0,59,0.00,,BKN,0.00,VWS V14.01,2013-02-26 05:01:00,
2013-02-25 23:02:00,42.6,29.3,29.12,North,0,0.0,0.0,59,0.00,,BKN,0.00,VWS V14.01,2013-02-26 05:02:00,
2013-02-25 23:07:00,42.6,29.7,29.12,North,0,0.0,0.0,60,0.00,,BKN,0.00,VWS V14.01,2013-02-26 05:07:00,
2013-02-25 23:12:00,42.6,29.7,29.12,North,0,0.0,0.0,60,0.00,,BKN,0.00,VWS V14.01,2013-02-26 05:12:00,
2013-02-25 23:17:00,42.6,29.7,29.12,North,0,0.0,0.0,60,0.00,,BKN,0.00,VWS V14.01,2013-02-26 05:17:00,
2013-02-25 23:23:00,42.6,29.7,29.12,North,0,0.0,0.0,60,0.00,,BKN,0.00,VWS V14.01,2013-02-26 05:23:00,
2013-02-25 23:28:00,42.8,29.9,29.12,North,0,0.0,0.0,60,0.00,,BKN,0.00,VWS V14.01,2013-02-26 05:28:00,
2013-02-25 23:33:00,42.8,29.9,29.12,North,0,0.0,0.0,60,0.00,,BKN,0.00,VWS V14.01,2013-02-26 05:33:00,
2013-02-25 23:38:00,42.6,29.7,29.12,North,0,0.0,0.0,60,0.00,,BKN,0.00,VWS V14.01,2013-02-26 05:38:00,
2013-02-25 23:43:00,42.6,29.7,29.12,North,0,0.0,0.0,60,0.00,,BKN,0.00,VWS V14.01,2013-02-26 05:43:00,
2013-02-25 23:48:00,42.4,29.5,29.15,North,0,0.0,0.0,60,0.00,,BKN,0.00,VWS V14.01,2013-02-26 05:48:00,
2013-02-25 23:53:00,42.4,29.5,29.15,North,0,0.0,0.0,60,0.00,,BKN,0.00,VWS V14.01,2013-02-26 05:53:00,
2013-02-25 23:58:00,42.4,29.5,29.15,North,0,0.0,0.0,60,0.00,,BKN,0.00,VWS V14.01,2013-02-26 05:58:00,